Radiation Dose at Monitoring Post of Fukushima Daini Nuclear Power Station
Date,Time,MP-1(microSv/h),MP-2(microSv/h),MP-3(microSv/h),MP-4(microSv/h),MP-5(microSv/h),MP-6(microSv/h),MP-7(microSv/h),Wind Direction,Wind Velocity(m/s),Rain
2016/02/04,00:00,0.424,0.251,0.445,0.407,0.364,0.210,0.185,west,2.9,No
2016/02/04,00:10,0.425,0.251,0.446,0.407,0.364,0.209,0.186,west-southwest,2.9,No
2016/02/04,00:20,0.424,0.251,0.445,0.407,0.364,0.210,0.185,west,3.1,No
2016/02/04,00:30,0.425,0.251,0.446,0.407,0.364,0.210,0.185,west,2.8,No
2016/02/04,00:40,0.425,0.251,0.447,0.406,0.364,0.210,0.185,west,3.1,No
2016/02/04,00:50,0.425,0.251,0.445,0.406,0.363,0.210,0.185,west-northwest,3.6,No
2016/02/04,01:00,0.425,0.251,0.445,0.406,0.364,0.210,0.185,north-northwest,4.1,No
2016/02/04,01:10,0.424,0.250,0.445,0.406,0.365,0.210,0.185,north-northwest,2.7,No
2016/02/04,01:20,0.422,0.250,0.448,0.408,0.364,0.209,0.185,northwest,3.8,No
2016/02/04,01:30,0.424,0.251,0.446,0.407,0.364,0.210,0.184,west-northwest,3.4,No
2016/02/04,01:40,0.425,0.251,0.445,0.407,0.363,0.210,0.185,northwest,3.4,No
2016/02/04,01:50,0.425,0.250,0.444,0.406,0.364,0.210,0.186,northwest,3.1,No
2016/02/04,02:00,0.427,0.251,0.445,0.408,0.363,0.208,0.185,northwest,4.0,No
2016/02/04,02:10,0.424,0.251,0.446,0.408,0.365,0.210,0.185,northwest,4.1,No
2016/02/04,02:20,0.424,0.252,0.447,0.407,0.363,0.210,0.185,northwest,3.4,No
2016/02/04,02:30,0.423,0.250,0.445,0.405,0.364,0.209,0.185,northwest,3.7,No
2016/02/04,02:40,0.425,0.251,0.447,0.405,0.363,0.210,0.185,northwest,3.8,No
2016/02/04,02:50,0.425,0.251,0.445,0.405,0.362,0.209,0.185,northwest,5.2,No
2016/02/04,03:00,0.424,0.251,0.447,0.406,0.362,0.210,0.185,northwest,5.6,No
2016/02/04,03:10,0.422,0.252,0.447,0.407,0.364,0.211,0.184,northwest,4.7,No
2016/02/04,03:20,0.424,0.251,0.445,0.407,0.364,0.209,0.185,west-northwest,3.9,No
2016/02/04,03:30,0.425,0.251,0.445,0.406,0.363,0.210,0.185,west-northwest,3.8,No
2016/02/04,03:40,0.424,0.250,0.446,0.407,0.363,0.210,0.185,northwest,3.7,No
2016/02/04,03:50,0.425,0.251,0.447,0.406,0.363,0.210,0.184,northwest,2.5,No
2016/02/04,04:00,0.422,0.251,0.446,0.406,0.363,0.209,0.185,northwest,1.9,No
2016/02/04,04:10,0.424,0.250,0.446,0.408,0.363,0.209,0.185,west,2.9,No
2016/02/04,04:20,0.425,0.251,0.444,0.407,0.363,0.209,0.184,west,3.4,No
2016/02/04,04:30,0.424,0.251,0.446,0.404,0.364,0.209,0.185,west-northwest,2.4,No
2016/02/04,04:40,0.423,0.251,0.447,0.404,0.362,0.209,0.184,west-northwest,1.4,No
2016/02/04,04:50,0.425,0.251,0.446,0.404,0.363,0.209,0.185,west-northwest,0.9,No
2016/02/04,05:00,0.423,0.252,0.445,0.406,0.363,0.209,0.185,-,CALM,No
2016/02/04,05:10,0.423,0.251,0.444,0.406,0.362,0.210,0.184,-,CALM,No
2016/02/04,05:20,0.424,0.250,0.445,0.405,0.362,0.209,0.185,-,CALM,No
2016/02/04,05:30,0.424,0.250,0.447,0.405,0.363,0.210,0.185,-,CALM,No
2016/02/04,05:40,0.423,0.250,0.446,0.405,0.363,0.210,0.184,-,CALM,No
2016/02/04,05:50,0.424,0.249,0.447,0.407,0.362,0.209,0.185,-,CALM,No
2016/02/04,06:00,0.424,0.251,0.446,0.408,0.362,0.209,0.185,north-northwest,0.8,No
2016/02/04,06:10,0.423,0.252,0.446,0.406,0.363,0.209,0.185,west-northwest,0.6,No
2016/02/04,06:20,0.425,0.251,0.444,0.406,0.364,0.210,0.186,west-southwest,2.4,No
2016/02/04,06:30,0.424,0.251,0.446,0.405,0.363,0.210,0.185,west,3.2,No
2016/02/04,06:40,0.424,0.250,0.446,0.405,0.361,0.209,0.185,west,2.9,No
2016/02/04,06:50,0.423,0.251,0.446,0.406,0.362,0.209,0.185,west,2.4,No
2016/02/04,07:00,0.424,0.249,0.446,0.405,0.363,0.210,0.185,west,1.3,No
2016/02/04,07:10,0.425,0.251,0.446,0.406,0.363,0.209,0.185,west,3.3,No
2016/02/04,07:20,0.423,0.251,0.446,0.405,0.363,0.209,0.185,west-southwest,3.9,No
2016/02/04,07:30,0.424,0.251,0.444,0.404,0.362,0.209,0.184,west-southwest,3.0,No
2016/02/04,07:40,0.425,0.250,0.445,0.405,0.362,0.210,0.184,west-southwest,3.9,No
2016/02/04,07:50,0.425,0.250,0.443,0.405,0.361,0.210,0.184,west-southwest,2.9,No
2016/02/04,08:00,0.422,0.250,0.444,0.404,0.362,0.209,0.184,southwest,1.7,No
2016/02/04,08:10,0.422,0.250,0.447,0.406,0.361,0.209,0.185,west-southwest,1.8,No
2016/02/04,08:20,0.423,0.250,0.447,0.404,0.361,0.210,0.185,west,2.1,No
2016/02/04,08:30,0.422,0.251,0.443,0.404,0.364,0.209,0.185,west,3.1,No
2016/02/04,08:40,0.423,0.250,0.444,0.404,0.363,0.209,0.185,west,3.6,No
2016/02/04,08:50,0.423,0.250,0.445,0.404,0.363,0.209,0.185,northwest,1.5,No
2016/02/04,09:00,0.423,0.250,0.447,0.404,0.363,0.210,0.184,north-northwest,1.4,No
2016/02/04,09:10,0.423,0.250,0.444,0.404,0.361,0.210,0.184,north-northwest,0.8,No
2016/02/04,09:20,0.423,0.248,0.445,0.403,0.362,0.209,0.186,-,CALM,No
2016/02/04,09:30,0.424,0.250,0.445,0.404,0.363,0.209,0.184,east,1.6,No
2016/02/04,09:40,0.424,0.250,0.444,0.403,0.362,0.210,0.185,east-southeast,1.5,No
2016/02/04,09:50,0.422,0.248,0.444,0.407,0.363,0.210,0.185,east,2.0,No
2016/02/04,10:00,0.423,0.249,0.444,0.405,0.364,0.209,0.185,east,2.2,No
2016/02/04,10:10,0.422,0.249,0.446,0.405,0.362,0.209,0.185,east,1.6,No
2016/02/04,10:20,0.422,0.249,0.445,0.408,0.362,0.210,0.185,east,1.2,No
2016/02/04,10:30,0.424,0.250,0.444,0.405,0.365,0.210,0.186,south-southeast,1.2,No
2016/02/04,10:40,0.422,0.248,0.445,0.407,0.364,0.210,0.186,west-northwest,2.0,No
2016/02/04,10:50,0.424,0.250,0.446,0.407,0.364,0.210,0.185,west,1.9,No
2016/02/04,11:00,0.422,0.251,0.445,0.405,0.365,0.210,0.186,west-southwest,1.8,No
2016/02/04,11:10,0.424,0.250,0.447,0.408,0.363,0.209,0.185,southwest,2.8,No
2016/02/04,11:20,0.422,0.250,0.446,0.406,0.365,0.210,0.187,west-southwest,2.2,No
2016/02/04,11:30,0.424,0.249,0.443,0.408,0.363,0.209,0.185,west,3.3,No
2016/02/04,11:40,0.422,0.251,0.446,0.405,0.366,0.210,0.185,west-southwest,2.9,No
2016/02/04,11:50,0.427,0.251,0.443,0.407,0.365,0.210,0.187,southwest,3.5,No
2016/02/04,12:00,0.422,0.251,0.444,0.407,0.367,0.211,0.185,west-southwest,6.2,No
2016/02/04,12:10,0.424,0.252,0.444,0.408,0.366,0.210,0.185,south,2.8,No
2016/02/04,12:20,0.424,0.250,0.443,0.409,0.365,0.210,0.185,south-southeast,5.1,No
2016/02/04,12:30,0.427,0.253,0.447,0.406,0.369,0.211,0.186,south,8.7,No
2016/02/04,12:40,0.425,0.252,0.443,0.411,0.368,0.211,0.186,south,8.1,No
2016/02/04,12:50,0.424,0.253,0.446,0.408,0.372,0.210,0.185,south-southeast,9.0,No
2016/02/04,13:00,0.427,0.253,0.444,0.410,0.368,0.211,0.187,south-southeast,7.5,No
2016/02/04,13:10,0.425,0.253,0.449,0.409,0.372,0.211,0.186,south,8.2,No
2016/02/04,13:20,0.426,0.252,0.442,0.410,0.369,0.211,0.186,south,8.6,No
2016/02/04,13:30,0.426,0.253,0.447,0.411,0.371,0.213,0.187,south,8.7,No
2016/02/04,13:40,0.425,0.252,0.445,0.411,0.372,0.212,0.185,south,10.4,No
2016/02/04,13:50,0.431,0.253,0.448,0.412,0.371,0.212,0.187,south,8.5,No
2016/02/04,14:00,0.426,0.253,0.445,0.410,0.373,0.212,0.187,south,8.1,No
2016/02/04,14:10,0.428,0.254,0.447,0.413,0.371,0.212,0.187,south,8.9,No
2016/02/04,14:20,0.429,0.253,0.449,0.412,0.371,0.212,0.187,south,11.1,No
2016/02/04,14:30,0.426,0.252,0.449,0.413,0.374,0.212,0.186,south,11.5,No
2016/02/04,14:40,0.430,0.255,0.449,0.413,0.373,0.211,0.187,south,10.9,No
2016/02/04,14:50,0.428,0.254,0.451,0.412,0.371,0.212,0.186,south,9.5,No
2016/02/04,15:00,0.429,0.254,0.447,0.413,0.374,0.212,0.187,south,11.4,No
2016/02/04,15:10,0.430,0.254,0.449,0.414,0.374,0.211,0.188,south,10.9,No
2016/02/04,15:20,0.429,0.255,0.451,0.415,0.372,0.212,0.188,south,10.1,No
2016/02/04,15:30,0.429,0.254,0.449,0.415,0.373,0.212,0.187,south,11.4,No
2016/02/04,15:40,0.432,0.255,0.451,0.414,0.373,0.212,0.188,south,11.2,No
2016/02/04,15:50,0.429,0.254,0.449,0.414,0.374,0.212,0.187,south,12.6,No
2016/02/04,16:00,0.429,0.254,0.448,0.414,0.373,0.213,0.187,south,9.5,No
2016/02/04,16:10,0.431,0.255,0.451,0.414,0.374,0.213,0.187,south,10.4,No
2016/02/04,16:20,0.429,0.254,0.450,0.415,0.372,0.213,0.187,south,11.5,No
2016/02/04,16:30,0.430,0.255,0.449,0.415,0.374,0.212,0.187,south,9.8,No
2016/02/04,16:40,0.430,0.255,0.451,0.414,0.373,0.213,0.187,south,10.6,No
2016/02/04,16:50,0.431,0.254,0.451,0.415,0.375,0.211,0.188,south-southwest,9.5,No
2016/02/04,17:00,0.428,0.256,0.450,0.416,0.373,0.213,0.187,south-southwest,8.1,No
2016/02/04,17:10,0.430,0.254,0.452,0.414,0.373,0.214,0.188,south,6.4,No
2016/02/04,17:20,0.432,0.255,0.451,0.416,0.374,0.212,0.188,south,6.8,No
2016/02/04,17:30,0.430,0.255,0.450,0.413,0.373,0.214,0.188,south-southwest,6.7,No
2016/02/04,17:40,0.428,0.256,0.450,0.416,0.374,0.212,0.187,south-southwest,6.8,No
2016/02/04,17:50,0.430,0.256,0.452,0.415,0.374,0.212,0.187,south-southwest,6.7,No
2016/02/04,18:00,0.430,0.255,0.451,0.414,0.373,0.214,0.188,south-southwest,5.9,No
2016/02/04,18:10,0.429,0.255,0.451,0.416,0.374,0.213,0.187,south-southwest,4.8,No
2016/02/04,18:20,0.428,0.255,0.450,0.416,0.374,0.214,0.187,south-southwest,3.6,No
2016/02/04,18:30,0.430,0.256,0.453,0.415,0.373,0.213,0.187,south,3.3,No
2016/02/04,18:40,0.430,0.256,0.452,0.415,0.374,0.214,0.188,south,3.3,No
2016/02/04,18:50,0.431,0.255,0.450,0.416,0.375,0.214,0.187,south,4.0,No
2016/02/04,19:00,0.430,0.254,0.451,0.416,0.374,0.213,0.186,south,4.4,No
2016/02/04,19:10,0.431,0.254,0.453,0.415,0.374,0.213,0.187,south,5.3,No
2016/02/04,19:20,0.431,0.256,0.451,0.417,0.374,0.215,0.187,south,6.3,No
2016/02/04,19:30,0.430,0.255,0.452,0.417,0.376,0.214,0.188,south,5.1,No
2016/02/04,19:40,0.429,0.254,0.455,0.418,0.374,0.214,0.188,south,4.2,No
2016/02/04,19:50,0.431,0.255,0.453,0.418,0.373,0.214,0.187,south,3.9,No
2016/02/04,20:00,0.430,0.254,0.450,0.416,0.375,0.214,0.188,south,6.0,No
2016/02/04,20:10,0.432,0.256,0.450,0.417,0.373,0.215,0.187,south,6.1,No
2016/02/04,20:20,0.429,0.256,0.454,0.418,0.375,0.214,0.187,south-southeast,5.9,No
2016/02/04,20:30,0.432,0.255,0.453,0.417,0.373,0.213,0.188,south,5.0,No
2016/02/04,20:40,0.431,0.256,0.451,0.416,0.373,0.215,0.188,south,5.2,No
2016/02/04,20:50,0.430,0.256,0.452,0.417,0.375,0.214,0.188,south,4.2,No
2016/02/04,21:00,0.431,0.256,0.453,0.418,0.375,0.214,0.187,south-southeast,3.9,No
2016/02/04,21:10,0.431,0.256,0.452,0.417,0.373,0.214,0.188,south-southeast,3.8,No
2016/02/04,21:20,0.430,0.254,0.453,0.416,0.374,0.213,0.188,south,3.9,No
2016/02/04,21:30,0.431,0.254,0.453,0.418,0.375,0.214,0.188,south-southeast,3.6,No
2016/02/04,21:40,0.430,0.256,0.455,0.418,0.374,0.214,0.187,south,4.2,No
2016/02/04,21:50,0.431,0.255,0.454,0.417,0.374,0.213,0.188,south-southeast,4.1,No
2016/02/04,22:00,0.431,0.257,0.452,0.417,0.374,0.214,0.188,south-southeast,5.8,No
2016/02/04,22:10,0.430,0.256,0.454,0.418,0.373,0.214,0.187,south,6.2,No
2016/02/04,22:20,0.431,0.255,0.454,0.418,0.374,0.213,0.187,south,4.6,No
2016/02/04,22:30,0.431,0.256,0.452,0.417,0.376,0.214,0.187,south,4.0,No
2016/02/04,22:40,0.431,0.256,0.451,0.417,0.373,0.214,0.188,south-southeast,4.5,No
2016/02/04,22:50,0.432,0.254,0.453,0.416,0.374,0.214,0.189,south-southeast,4.3,No
2016/02/04,23:00,0.432,0.256,0.453,0.417,0.374,0.214,0.187,south,4.6,No
2016/02/04,23:10,0.431,0.254,0.453,0.418,0.375,0.214,0.187,south,4.8,No
2016/02/04,23:20,0.431,0.256,0.452,0.416,0.374,0.215,0.187,south,4.8,No
2016/02/04,23:30,0.432,0.255,0.453,0.418,0.374,0.214,0.188,south,5.4,No
2016/02/04,23:40,0.431,0.256,0.453,0.417,0.375,0.214,0.189,south,4.5,No
2016/02/04,23:50,0.432,0.255,0.451,0.418,0.375,0.215,0.187,south,5.5,No
